Terminal Aerodrome Forecast
Issued by NWS

Home | Current Version | Previous Version | Text Only | Print | Product List | Glossary Off
Versions: 1 2 3 4 5 6 7 8 9 10 11 12 13 14 15 16 17 18 19 20 21 22 23 24 25 26 27 28 29 30

054
FTUS43 KLOT 242100 AAA
TAFORD
TAF AMD
KORD 242100Z 2421/2524 22013G20KT P6SM FEW050 BKN250
     FM250100 22008KT P6SM BKN250
     FM251000 20004KT P6SM SCT050 BKN250
     FM251500 16010KT P6SM SCT050 BKN200 PROB30 2520/2524 4SM TSRA
      BKN040CB=

USA.gov is the U.S. government's official web portal to all federal, state and local government web resources and services.